Location: Burera
(21.3780°N, 81.9534°E)
Time: 12:03:07
(UTC+00:00)

USA 281 - Pass Details

Date: 13 August 2020
Orbit: 1079 x 1080 km, 106.0° (Epoch: 07 September)

Event Time Altitude Azimuth Distance (km) Brightness Sun altitude
Rises 21:54:27 0° 28° (NNE) 3,872 7.0 -29.8°
Reaches altitude 10° 21:57:03 10° 33° (NNE) 2,915 6.2 -29.3°
Maximum altitude 22:03:24 52° 109° (ESE) 1,310 3.8 -28.0°
Enters shadow 22:06:40 28° 171° (S) 1,877 4.3 -27.4°
